[[{"header":{"parameterUnit":"m.s-1","parameterCategory":1,"la1":30.2991,"la2":30.254,"lo1":-89.0895,"lo2":-89.0444,"dy":0.0017,"dx":0.0017,"nx":28,"ny":28,"refTime":"2024-03-21T21:00:00:Z","depth":0,"parameterNumber":2,"parameterNumberName":"U-component_of_WINDS"},"data":[0,0,0,0,0,0,0,0,0,0,0,0,0,0,0,0,0,0,0,0,0,0,0,0,0,0,0,0,0,0,0,0,0,0,0,0,0,0,0,0,0,0,0,0,0,0,0,0,0,0,0,0,0,0,0,0,0,0,3.0519,3.052,0,3.0538,3.0538,3.0538,3.0488,3.0486,3.0485,3.0483,3.0503,3.0505,3.0507,0,0,0,0,0,0,0,0,0,0,0,0,0,3.0442,3.0444,3.0519,3.052,3.052,3.0538,3.0538,3.0538,3.0488,3.0486,3.0484,3.0483,3.0503,3.0505,3.0507,0,0,0,0,0,0,0,0,0,0,0,0,0,3.047,3.0445,3.0519,3.0497,3.0495,3.0538,3.0538,3.0539,3.0489,3.0486,3.0484,3.0482,3.0502,3.0505,3.0508,3.0573,0,0,3.0517,3.0518,0,0,0,0,0,0,0,0,3.0468,3.0473,3.05,3.0499,3.0497,3.0508,3.0518,3.055,3.0489,3.0491,3.0483,3.0481,3.0507,3.0509,3.0518,3.0574,3.0575,3.0517,3.0519,3.052,3.0521,0,0,0,0,0,0,0,3.0467,3.0472,3.0527,3.0501,3.0498,3.0487,3.0488,3.0524,3.0512,3.0491,3.0487,3.049,3.0505,3.0515,3.0518,3.0575,3.0517,3.052,3.0521,3.0523,3.0688,3.069,0,0,0,0,0,0,3.0467,3.0471,3.0526,3.0527,3.0476,3.049,3.0491,3.0507,3.0511,3.051,3.0492,3.0488,3.0511,3.0515,3.0519,3.0597,3.052,3.0523,3.0525,3.0685,3.0688,3.0691,0,0,0,0,0,0,3.0466,3.0473,3.0525,3.0498,3.0504,3.0494,3.0512,3.0509,3.0518,3.0512,3.051,3.0504,3.051,3.0514,3.056,3.0596,3.0524,3.0527,3.0682,3.0686,3.069,3.0752,0,0,0,0,0,0,3.0464,3.0473,3.0497,3.0499,3.0505,3.0566,3.0514,3.0511,3.0523,3.0518,3.0523,3.0522,3.0508,3.0556,3.0563,3.0599,3.0529,3.0679,3.0684,3.0689,3.0747,3.0758,3.0767,0,0,0,0,0,3.0461,3.0513,3.0498,3.0505,3.0535,3.0568,3.0572,3.0555,3.0526,3.0551,3.0548,3.0522,3.0591,3.0561,3.0569,3.0606,3.0677,3.0683,3.0688,3.0743,3.0756,3.0767,0,0,0,0,0,0,3.0516,3.0513,3.0496,3.055,3.056,3.056,3.059,3.057,3.0588,3.0582,3.056,3.0562,3.0612,3.0614,3.058,3.0671,3.0629,3.0637,3.0668,3.068,3.069,3.0689,3.0532,0,0,0,0,0,3.0534,3.0561,3.0557,3.0606,3.0611,3.06,3.0614,3.06,3.0609,3.0613,3.0613,3.0623,3.0648,3.0664,3.0686,3.0747,3.0748,3.0777,3.0787,3.0796,3.0802,3.0836,3.0849,3.071,3.071,3.071,0,0,3.0572,3.0574,3.0592,3.0617,3.0622,3.0651,3.0604,3.0636,3.0658,3.0618,3.0662,3.0662,3.0672,3.0727,3.0751,3.073,3.0841,3.0803,3.081,3.0812,3.0844,3.0857,3.0869,3.0714,3.0714,3.0713,0,0,3.0656,3.066,3.0701,3.0708,3.0718,3.071,3.0721,3.0724,3.0723,3.0766,3.0738,3.0764,3.0806,3.0814,3.0824,3.0914,3.0891,3.0922,3.0975,3.1008,3.1019,3.1029,3.1062,3.1074,3.0929,3.0929,3.0929,0,3.0702,3.0744,3.0725,3.076,3.0772,3.0738,3.078,3.0788,3.0805,3.0814,3.079,3.0844,3.0848,3.0905,3.0927,3.0936,3.0948,3.0921,3.1019,3.1029,3.1037,3.1069,3.1081,3.0933,3.0933,3.0932,3.0932,0,3.0801,3.083,3.0863,3.088,3.0896,3.0934,3.0922,3.094,3.0926,3.0921,3.0967,3.0971,3.0994,3.1007,3.0993,3.1062,3.1049,3.1023,3.098,3.1055,3.1084,3.1096,3.0938,3.0937,3.0936,3.0935,0,0,3.0918,3.0926,3.0938,3.0946,3.0955,3.0978,3.1015,3.1038,3.1055,3.1068,3.11,3.1137,3.1113,3.1125,3.1112,3.1141,3.1213,3.1111,3.1111,3.1131,3.1292,3.1312,3.1326,3.1198,3.1201,3.1202,3.1291,0,3.1002,3.1066,3.1051,3.1114,3.1142,3.1111,3.1144,3.1154,3.1151,3.1175,3.1172,3.12,3.1166,3.1173,3.1201,3.1199,3.1245,3.1192,3.1228,3.123,3.1227,3.1341,3.1361,3.1445,3.1302,3.1304,3.1305,0,3.1107,3.1125,3.1192,3.1198,3.1209,3.1238,3.1259,3.1282,3.1293,3.1289,3.1303,3.1285,3.1323,3.1281,3.1334,3.1298,3.1312,3.1314,3.1317,3.1319,3.1272,3.1347,3.1471,3.1484,3.1323,3.1322,3.132,0,3.1188,3.1228,3.1273,3.1281,3.1289,3.1311,3.1315,3.1324,3.1339,3.1357,3.1367,3.139,3.1402,3.142,3.1409,3.1379,3.1465,3.1421,3.1464,3.1464,3.1483,3.1482,3.1611,3.1492,3.1491,3.1491,3.1491,0,3.1283,3.1325,3.131,3.1338,3.1384,3.1367,3.1414,3.1415,3.1424,3.1452,3.1427,3.1454,3.1437,3.1464,3.1455,3.1501,3.1507,3.1506,3.1503,3.1508,3.1508,3.1517,3.1511,3.1494,3.1494,3.1493,3.1493,0,3.138,3.1371,3.1419,3.1423,3.1425,3.146,3.1463,3.149,3.1486,3.1522,3.153,3.1524,3.1554,3.1544,3.1576,3.1571,3.163,3.1619,3.1626,3.1624,3.1667,3.1663,3.1806,3.1825,3.1693,3.1694,3.1695,0,3.1441,3.1473,3.1481,3.1498,3.1504,3.1532,3.1548,3.1533,3.155,3.1566,3.1591,3.1619,3.164,3.169,3.1689,3.1714,3.1704,3.1753,3.1707,3.1712,3.1706,3.1704,3.1708,3.1761,3.1763,3.1764,3.1765,0,3.1551,3.1546,3.1569,3.1592,3.1611,3.1628,3.1643,3.1658,3.1645,3.1666,3.1696,3.1713,3.1746,3.1774,3.1797,3.1802,3.1782,3.178,3.1791,3.1796,3.1799,3.1799,3.1651,3.1776,3.1775,3.1774,3.1774,3.1773,3.1633,3.166,3.167,3.1698,3.1707,3.1722,3.1748,3.1747,3.1772,3.1798,3.1788,3.1823,3.1835,3.1864,3.1873,3.1901,3.1882,3.1898,3.1902,3.1907,3.1912,3.1795,3.1905,3.1904,3.1904,3.1904,3.1903,0,3.1742,3.1748,3.1773,3.1795,3.1817,3.1795,3.1811,3.1831,3.1862,3.1875,3.1897,3.1933,3.196,3.1962,3.1988,3.2011,3.2002,3.2018,3.2016,3.2018,3.1927,3.1915,3.2025,3.2025,3.2025,3.2025,3.2025,3.2025,3.1802,3.1847,3.1843,3.1894,3.1899,3.1934,3.1945,3.1959,3.1969,3.201,3.2033,3.2034,3.2043,3.207,3.2095,3.2095,3.2106,3.2125,3.2122,3.2037,3.2025,3.2013,3.2002,3.2128,3.2128,3.2211,3.2212,3.2212]},{"header":{"parameterUnit":"m.s-1","parameterCategory":1,"la1":30.2991,"la2":30.254,"lo1":-89.0895,"lo2":-89.0444,"dy":0.0017,"dx":0.0017,"nx":28,"ny":28,"refTime":"2024-03-21T21:00:00:Z","depth":0,"parameterNumber":3,"parameterNumberName":"V-component_of_WINDS"},"data":[0,0,0,0,0,0,0,0,0,0,0,0,0,0,0,0,0,0,0,0,0,0,0,0,0,0,0,0,0,0,0,0,0,0,0,0,0,0,0,0,0,0,0,0,0,0,0,0,0,0,0,0,0,0,0,0,0,0,-5.6795,-5.6795,0,-5.6855,-5.6856,-5.6857,-5.6786,-5.6783,-5.678,-5.6778,-5.6837,-5.6841,-5.6845,0,0,0,0,0,0,0,0,0,0,0,0,0,-5.6616,-5.6619,-5.6795,-5.6795,-5.6796,-5.6855,-5.6856,-5.6857,-5.6786,-5.6783,-5.678,-5.6777,-5.6835,-5.684,-5.6845,0,0,0,0,0,0,0,0,0,0,0,0,0,-5.6687,-5.6621,-5.6795,-5.6768,-5.6766,-5.6855,-5.6856,-5.6857,-5.6787,-5.6783,-5.6779,-5.6775,-5.6834,-5.684,-5.6846,-5.6962,0,0,-5.6864,-5.6867,0,0,0,0,0,0,0,0,-5.6683,-5.6693,-5.6771,-5.677,-5.6768,-5.6809,-5.6814,-5.6892,-5.6788,-5.6779,-5.6778,-5.6773,-5.683,-5.6837,-5.6856,-5.6965,-5.6967,-5.6865,-5.6868,-5.6871,-5.6873,0,0,0,0,0,0,0,-5.6678,-5.669,-5.6818,-5.6772,-5.6771,-5.6753,-5.6758,-5.6829,-5.6826,-5.6779,-5.6774,-5.6783,-5.6829,-5.6851,-5.6857,-5.6968,-5.6864,-5.687,-5.6874,-5.6876,-5.7177,-5.7181,0,0,0,0,0,0,-5.6676,-5.6687,-5.6817,-5.682,-5.6715,-5.6759,-5.6765,-5.68,-5.6825,-5.6825,-5.6786,-5.6779,-5.6842,-5.685,-5.6859,-5.6998,-5.6871,-5.6877,-5.688,-5.7172,-5.7177,-5.7182,0,0,0,0,0,0,-5.6673,-5.6689,-5.6814,-5.6752,-5.6767,-5.6766,-5.6806,-5.6803,-5.6825,-5.683,-5.6829,-5.6809,-5.684,-5.6851,-5.6938,-5.6999,-5.6879,-5.6885,-5.7167,-5.7174,-5.718,-5.7276,0,0,0,0,0,0,-5.6668,-5.6688,-5.6733,-5.6754,-5.677,-5.6893,-5.6809,-5.6807,-5.6836,-5.6828,-5.6852,-5.6852,-5.6837,-5.6929,-5.6944,-5.7005,-5.6889,-5.7161,-5.717,-5.7178,-5.7268,-5.7285,-5.7301,0,0,0,0,0,-5.6662,-5.6756,-5.6735,-5.6751,-5.6826,-5.6896,-5.6906,-5.6888,-5.6841,-5.6886,-5.689,-5.6851,-5.699,-5.6938,-5.6954,-5.7019,-5.7158,-5.7168,-5.7177,-5.726,-5.7282,-5.73,0,0,0,0,0,0,-5.6741,-5.6759,-5.6735,-5.684,-5.6867,-5.6884,-5.694,-5.6911,-5.6952,-5.6942,-5.6918,-5.6924,-5.7017,-5.7026,-5.6968,-5.7133,-5.7066,-5.7079,-5.7124,-5.7144,-5.7161,-5.7156,-5.6894,0,0,0,0,0,-5.6771,-5.6827,-5.6839,-5.693,-5.6945,-5.6941,-5.697,-5.6954,-5.6981,-5.6992,-5.7002,-5.7029,-5.7079,-5.7112,-5.7158,-5.7269,-5.7273,-5.7321,-5.7337,-5.7351,-5.7363,-5.7423,-5.7444,-5.7214,-5.7214,-5.7214,0,0,-5.6832,-5.6849,-5.6885,-5.6946,-5.6965,-5.7024,-5.695,-5.7015,-5.7057,-5.7002,-5.7085,-5.7093,-5.7122,-5.7222,-5.7266,-5.7232,-5.7427,-5.7363,-5.7374,-5.7379,-5.7435,-5.7457,-5.7476,-5.7221,-5.722,-5.7219,0,0,-5.6974,-5.6992,-5.7071,-5.7092,-5.7123,-5.712,-5.7139,-5.7161,-5.7165,-5.7248,-5.7208,-5.7258,-5.7344,-5.7367,-5.7389,-5.7542,-5.7508,-5.7557,-5.7643,-5.7702,-5.772,-5.7736,-5.7791,-5.7811,-5.7569,-5.7569,-5.757,0,-5.7046,-5.7133,-5.7114,-5.7182,-5.721,-5.7164,-5.7243,-5.7264,-5.7309,-5.7329,-5.7291,-5.7399,-5.7415,-5.752,-5.7557,-5.7577,-5.7598,-5.7554,-5.7719,-5.7735,-5.775,-5.7802,-5.7823,-5.7575,-5.7575,-5.7574,-5.7573,0,-5.7221,-5.7282,-5.7341,-5.7387,-5.7422,-5.7495,-5.7486,-5.7524,-5.7505,-5.7506,-5.7592,-5.761,-5.7659,-5.7683,-5.7665,-5.7786,-5.7764,-5.7723,-5.7655,-5.7778,-5.7826,-5.7846,-5.7584,-5.7582,-5.758,-5.7578,0,0,-5.7413,-5.7449,-5.7471,-5.7492,-5.7524,-5.757,-5.7641,-5.7691,-5.7724,-5.7756,-5.7815,-5.789,-5.7853,-5.7879,-5.7863,-5.7915,-5.8035,-5.7867,-5.7868,-5.7898,-5.817,-5.8201,-5.8224,-5.8013,-5.8017,-5.802,-5.8168,0,-5.7556,-5.7681,-5.7667,-5.7786,-5.7842,-5.78,-5.7862,-5.7888,-5.789,-5.7938,-5.794,-5.7994,-5.7941,-5.7957,-5.8006,-5.801,-5.8089,-5.7999,-5.8067,-5.807,-5.8062,-5.8249,-5.8282,-5.842,-5.8187,-5.819,-5.8192,0,-5.774,-5.7781,-5.7906,-5.793,-5.7953,-5.8009,-5.8054,-5.8101,-5.8129,-5.8128,-5.8158,-5.8133,-5.8204,-5.8135,-5.8233,-5.8172,-5.8199,-5.8205,-5.821,-5.8216,-5.8139,-5.826,-5.8464,-5.8485,-5.8222,-5.8219,-5.8217,0,-5.7869,-5.7955,-5.8041,-5.806,-5.809,-5.8131,-5.8145,-5.817,-5.8201,-5.824,-5.826,-5.8307,-5.8332,-5.8368,-5.8357,-5.8308,-5.8457,-5.8387,-5.8458,-5.8458,-5.8491,-5.8489,-5.8702,-5.8508,-5.8508,-5.8508,-5.8507,0,-5.803,-5.8108,-5.8099,-5.8152,-5.8239,-5.8222,-5.8307,-5.8316,-5.8339,-5.8393,-5.8358,-5.8409,-5.8391,-5.8441,-5.8432,-5.8515,-5.8526,-5.8527,-5.8523,-5.853,-5.853,-5.8547,-5.8537,-5.8513,-5.8512,-5.8511,-5.851,0,-5.8188,-5.8185,-5.8277,-5.8299,-5.8306,-5.8369,-5.8387,-5.8437,-5.8438,-5.8506,-5.8521,-5.8522,-5.8579,-5.8572,-5.8634,-5.8629,-5.8732,-5.8716,-5.8722,-5.8719,-5.8791,-5.8784,-5.9022,-5.9053,-5.8839,-5.8841,-5.8843,0,-5.8291,-5.8351,-5.838,-5.8415,-5.8432,-5.8488,-5.852,-5.8505,-5.854,-5.8578,-5.8623,-5.8678,-5.872,-5.8813,-5.8819,-5.8867,-5.8853,-5.8933,-5.886,-5.8865,-5.8855,-5.8851,-5.8857,-5.8947,-5.895,-5.8952,-5.8953,0,-5.8475,-5.8472,-5.852,-5.8569,-5.8609,-5.8646,-5.868,-5.8709,-5.8698,-5.8739,-5.8798,-5.8831,-5.8896,-5.895,-5.8996,-5.901,-5.898,-5.8977,-5.8996,-5.9003,-5.9004,-5.9005,-5.8762,-5.8971,-5.8969,-5.8968,-5.8967,-5.8966,-5.8609,-5.8661,-5.869,-5.8746,-5.877,-5.8803,-5.8851,-5.8858,-5.8908,-5.8961,-5.8949,-5.9015,-5.9043,-5.9101,-5.912,-5.9171,-5.9142,-5.9169,-5.9176,-5.9183,-5.9192,-5.8996,-5.9179,-5.9179,-5.9178,-5.9178,-5.9178,0,-5.8792,-5.8809,-5.8861,-5.891,-5.8954,-5.8923,-5.8959,-5.8998,-5.9057,-5.9086,-5.9129,-5.9197,-5.925,-5.9261,-5.9311,-5.935,-5.9338,-5.9364,-5.9361,-5.9364,-5.9215,-5.9194,-5.9373,-5.9373,-5.9373,-5.9373,-5.9373,-5.9373,-5.8892,-5.8978,-5.8978,-5.9076,-5.9092,-5.9158,-5.9181,-5.9211,-5.9234,-5.9312,-5.9357,-5.9364,-5.9385,-5.9437,-5.9484,-5.9486,-5.9506,-5.9538,-5.9534,-5.9394,-5.9375,-5.9356,-5.9336,-5.9542,-5.9542,-5.9679,-5.968,-5.9681]}]]